Marrakech, Morocco

10:34 PM WET on January 19, 2017 (GMT +0000)
Menara

Weather History for GMMX - December, 2014

Change the Weather History Date:

Saturday, December 13, 2014

  Actual Average Record
Temperature  
Mean Temperature 54 °F -  
Max Temperature 64 °F 64 °F 75 °F (1996)
Min Temperature 45 °F 43 °F 39 °F (2005)
Degree Days  
Heating Degree Days 10    
Growing Degree Days 4 (Base 50)    
Moisture  
Dew Point 47 °F    
Average Humidity 72    
Maximum Humidity 100    
Minimum Humidity 34    
Precipitation  
Precipitation 0.12 in 0.04 in - ()
Sea Level Pressure  
Sea Level Pressure 30.05 in    
Wind  
Wind Speed 3 mph ()    
Max Wind Speed 15 mph    
Max Gust Speed -    
Visibility 6.2 miles    
Events Rain    
Averages and records for this station are not official NWS values.
T = Trace of Precipitation, MM = Missing Value Source: Averaged Metar Reports

Daily Weather History Graph

Daily Weather History Graph

Search for Another Location

Airport or City:

Trip Planner

Search our weather history database for the weather conditions in past years. The results will help you decide how hot, cold, wet, or windy it might be!

Date:

Astronomy

Dec. 13, 2014 Rise Set
Actual Time 7:22 AM WET 5:29 PM WET
Civil Twilight 6:55 AM WET 5:56 PM WET
Nautical Twilight 6:25 AM WET 6:26 PM WET
Astronomical Twilight 5:55 AM WET 6:56 PM WET
Moon 11:59 PM WET (12/13) 11:57 AM WET (12/13)
Length of Visible Light 11h 00m
Length of Day
10h 06m
Waning Gibbous, 60% of the Moon is Illuminated
Dec 13
Waning Gibbous
Dec 14
Last Quarter
Dec 22
New
Dec 28
First Quarter
Jan 5
Full

Hourly Weather History & Observations

Time (WET) Temp. Dew Point Humidity Pressure Visibility Wind Dir Wind Speed Gust Speed Precip Events Conditions
12:00 AM 54 °F 46 °F 67% 30.19 in 6 mi South 3.5 mph - -   Clear
12:00 AM 53.6 °F 46.4 °F 77% 30.18 in - South 3.5 mph - N/A   Clear
12:30 AM 53.6 °F 46.4 °F 77% 30.18 in - Variable 2.3 mph - N/A   Clear
1:00 AM 53.6 °F 48.2 °F 82% 30.15 in - Calm Calm - N/A   Clear
1:30 AM 51.8 °F 48.2 °F 88% 30.15 in - Calm Calm - N/A   Clear
2:00 AM 51.8 °F 48.2 °F 88% 30.15 in - Calm Calm - N/A   Clear
2:30 AM 51.8 °F 48.2 °F 88% 30.12 in - East 3.5 mph - N/A   Clear
3:00 AM 52 °F 48 °F 81% 30.14 in 6 mi ENE 4.6 mph - -   Clear
3:00 AM 51.8 °F 48.2 °F 88% 30.12 in - ENE 3.5 mph - N/A   Clear
3:30 AM 50.0 °F 48.2 °F 94% 30.12 in 6.2 mi East 2.3 mph - N/A   Unknown
4:00 AM 50.0 °F 46.4 °F 87% 30.12 in 6.2 mi Calm Calm - N/A   Unknown
4:30 AM 50.0 °F 48.2 °F 94% 30.09 in 6.2 mi ESE 4.6 mph - N/A   Unknown
5:00 AM 51.8 °F 48.2 °F 88% 30.09 in 6.2 mi ESE 3.5 mph - N/A   Scattered Clouds
5:30 AM 51.8 °F 48.2 °F 88% 30.09 in 6.2 mi Variable 2.3 mph - N/A   Scattered Clouds
6:00 AM 51 °F 47 °F 83% 30.10 in 6 mi East 2.3 mph - -   Scattered Clouds
6:00 AM 50.0 °F 48.2 °F 94% 30.09 in 6.2 mi East 2.3 mph - N/A   Scattered Clouds
6:30 AM 50.0 °F 48.2 °F 94% 30.09 in 6.2 mi NNE 3.5 mph - N/A   Scattered Clouds
7:00 AM 50.0 °F 48.2 °F 94% 30.09 in 6.2 mi East 3.5 mph - N/A   Scattered Clouds
7:30 AM 50.0 °F 46.4 °F 87% 30.09 in 6.2 mi Calm Calm - N/A   Scattered Clouds
8:00 AM 50.0 °F 46.4 °F 87% 30.09 in 6.2 mi Calm Calm - N/A   Scattered Clouds
8:30 AM 51.8 °F 48.2 °F 88% 30.09 in 6.2 mi East 2.3 mph - N/A   Scattered Clouds
9:00 AM 54 °F 47 °F 72% 30.09 in 6 mi ESE 4.6 mph - -   Partly Cloudy
9:00 AM 53.6 °F 48.2 °F 82% 30.09 in 5.6 mi ESE 4.6 mph - N/A   Scattered Clouds
9:30 AM 57.2 °F 48.2 °F 72% 30.09 in 6.2 mi ESE 3.5 mph - N/A   Scattered Clouds
10:00 AM 59.0 °F 48.2 °F 67% 30.09 in 6.2 mi Calm Calm - N/A   Scattered Clouds
10:30 AM 62.6 °F 48.2 °F 59% 30.06 in 6.2 mi Calm Calm - N/A   Scattered Clouds
11:00 AM 62.6 °F 46.4 °F 55% 30.06 in 6.2 mi East 3.5 mph - N/A   Scattered Clouds
11:30 AM 64.4 °F 44.6 °F 49% 30.04 in 6.2 mi ENE 3.5 mph - N/A   Scattered Clouds
12:00 PM 64 °F 47 °F 42% 30.01 in 6 mi NNW 2.3 mph - -   Mostly Cloudy
12:00 PM 64.4 °F 44.6 °F 49% 30.04 in 6.2 mi Variable 2.3 mph - N/A   Scattered Clouds
12:30 PM 64.4 °F 44.6 °F 49% 30.01 in 6.2 mi Calm Calm - N/A   Scattered Clouds
1:00 PM 62.6 °F 46.4 °F 55% 30.01 in 6.2 mi Calm Calm - N/A   Scattered Clouds
1:30 PM 62.6 °F 44.6 °F 52% 30.01 in 6.2 mi Calm Calm - N/A   Scattered Clouds
2:00 PM 64.4 °F 44.6 °F 49% 29.98 in 6.2 mi Calm Calm - N/A   Mostly Cloudy
2:30 PM 64.4 °F 44.6 °F 49% 29.98 in 6.2 mi Variable 2.3 mph - N/A   Mostly Cloudy
3:00 PM 64 °F 43 °F 34% 29.94 in 6 mi Calm Calm - -   Partly Cloudy
3:00 PM 64.4 °F 42.8 °F 45% 29.98 in 6.2 mi Calm Calm - N/A   Mostly Cloudy
3:30 PM 64.4 °F 42.8 °F 45% 29.98 in 6.2 mi SSE 3.5 mph - N/A   Mostly Cloudy
4:00 PM 64.4 °F 42.8 °F 45% 29.95 in 6.2 mi ESE 3.5 mph - N/A   Mostly Cloudy
4:30 PM 64.4 °F 42.8 °F 45% 29.95 in 6.2 mi ESE 3.5 mph - N/A   Mostly Cloudy
5:00 PM 62.6 °F 46.4 °F 55% 29.95 in 6.2 mi ESE 3.5 mph - N/A   Mostly Cloudy
5:30 PM 62.6 °F 44.6 °F 52% 29.98 in 6.2 mi NE 2.3 mph - N/A   Mostly Cloudy
6:00 PM 61 °F 47 °F 49% 29.94 in 6 mi NE 3.5 mph - -   Partly Cloudy
6:00 PM 60.8 °F 46.4 °F 59% 29.95 in 6.2 mi ENE 3.5 mph - N/A   Mostly Cloudy
6:30 PM 60.8 °F 44.6 °F 55% 29.98 in - North - - N/A   Mostly Cloudy
7:00 PM 57.2 °F 42.8 °F 59% 29.98 in 6.2 mi NW 15.0 mph - N/A   Mostly Cloudy
7:30 PM 53.6 °F 48.2 °F 82% 30.01 in 6.2 mi NW 15.0 mph - N/A Rain Light Rain
8:00 PM 53.6 °F 48.2 °F 82% 30.01 in 6.2 mi NW 12.7 mph - N/A Rain Light Rain
8:30 PM 53.6 °F 46.4 °F 77% 30.01 in 6.2 mi NW 15.0 mph - N/A Rain Light Rain
9:00 PM 52 °F 49 °F 85% 30.04 in 6 mi NW 15.0 mph - -   Overcast
9:00 PM 51.8 °F 48.2 °F 88% 30.01 in 6.2 mi NW 15.0 mph - N/A Rain Light Rain
9:30 PM 51.8 °F 48.2 °F 88% 30.04 in 6.2 mi WNW 12.7 mph - N/A Rain Light Rain
10:30 PM 50.0 °F 48.2 °F 94% 30.06 in 6.2 mi West 10.4 mph - N/A Rain Light Rain
11:00 PM 50.0 °F 50.0 °F 100% 30.06 in 6.2 mi West 10.4 mph - N/A Rain Light Rain
11:30 PM 50.0 °F 50.0 °F 100% 30.06 in 6.2 mi West 12.7 mph - N/A Rain Light Rain